"Time","Temp","Dewpoint","Humidity","Pressure","Direction","Speed","Gust","Precip","PrecipRate"
"00:04:56","77.8","70","77","30.13","339","1","4","0.00","0.00"
"00:09:59","77.6","70.1","77.7","30.13","349","0.8","3","0.00","0.00"
"00:14:57","77.5","70.1","78","30.13","355","1.6","5","0.00","0.00"
"00:19:56","77.3","69.9","78","30.13","336","2.2","6","0.00","0.00"
"00:24:56","77.2","69.8","78","30.13","339","1.5","3.5","0.00","0.00"
"00:29:57","77","69.6","78","30.13","344","0.8","5","0.00","0.00"
"00:34:56","76.8","69.4","78","30.13","330","1.4","6","0.00","0.00"
"00:39:58","76.6","68.9","77.3","30.13","325","2","9","0.00","0.00"
"00:44:56","76.3","68.7","77.2","30.13","5","1.7","7","0.00","0.00"
"00:49:57","76.1","68.4","77.1","30.13","340","2.2","8","0.00","0.00"
"00:54:56","75.9","68.2","77.2","30.13","343","1.7","7","0.00","0.00"
"00:59:56","75.7","68","77","30.14","339","2","5","0.00","0.00"
"01:04:59","75.5","67.8","77","30.14","6","2.4","5","0.00","0.00"
"01:09:56","75.3","67.7","77.2","30.14","342","1.8","6","0.00","0.00"
"01:14:56","75.2","67.7","77.4","30.15","340","0.8","4","0.00","0.00"
"01:19:56","75.1","67.7","77.8","30.15","332","1","4","0.00","0.00"
"01:24:57","74.8","67.9","79.1","30.15","352","0.9","5","0.00","0.00"
"01:29:58","74.5","67.9","80","30.15","5","0.3","2.3","0.00","0.00"
"01:34:57","74.3","67.9","80.5","30.15","5","0","3","0.00","0.00"
"01:39:59","74.1","68.1","81.7","30.15","341","1.9","5","0.00","0.00"
"01:44:56","73.7","68.7","84.5","30.15","346","2.9","6","0.02","0.01"
"01:49:59","72.9","68.8","86.9","30.15","302","1.2","3.5","0.11","0.09"
"01:54:58","72.2","68.7","88.9","30.15","282","1.1","3.5","0.17","0.16"
"01:59:56","71.6","68.6","90.5","30.15","265","1","2.3","0.19","0.18"
"02:04:56","71.2","68.7","91.8","30.14","265","1.4","3.5","0.21","0.20"
"02:09:58","71","68.8","92.6","30.14","327","1.6","4","0.24","0.23"
"02:14:56","70.8","68.7","93","30.14","342","2.7","6","0.26","0.25"
"02:19:57","70.6","68.7","93.4","30.13","313","3","12","0.30","0.29"
"02:24:58","70.4","68.6","94","30.13","333","4.4","11.5","0.33","0.32"
"02:29:59","70.4","68.6","94","30.14","343","4.4","11.5","0.35","0.35"
"02:34:56","70.4","68.9","95","30.14","344","2.7","10","0.37","0.36"
"02:39:59","70.4","68.9","95","30.14","352","2.2","7","0.37","0.37"
"02:44:56","70.5","69","95","30.14","336","3.4","12","0.38","0.38"
"02:49:57","70.5","69","95","30.12","346","2.3","6","0.39","0.36"
"02:54:56","70.5","69","95","30.12","353","2.7","7","0.39","0.28"
"02:59:57","70.5","69","95","30.13","357","1.7","7","0.39","0.22"
"03:04:58","70.5","69","95","30.13","358","1.2","6.9","0.39","0.20"
"03:09:56","70.5","69","95","30.13","330","1.8","4","0.39","0.18"
"03:14:58","70.5","69.1","95.4","30.14","349","2.4","6","0.40","0.15"
"03:19:59","70.5","69.3","95.8","30.14","352","2.1","10","0.41","0.14"
"03:24:56","70.5","69.3","96","30.14","336","1.4","4.6","0.42","0.11"
"03:29:56","70.4","69.1","95.6","30.14","16","1.7","5","0.44","0.10"
"03:34:56","70.3","68.8","95","30.13","323","2.5","10.4","0.46","0.09"
"03:39:56","70.1","68.6","95","30.13","359","2.2","7","0.47","0.10"
"03:44:56","70","68.5","95","30.13","353","1.9","5","0.47","0.10"
"03:49:57","69.8","68.3","95","30.12","8","0.9","3","0.48","0.10"
"03:54:58","69.7","68.2","95","30.12","31","1.4","3.5","0.49","0.10"
"03:59:56","69.7","68.2","95","30.12","353","1.5","5","0.49","0.10"
"04:04:56","69.4","67.9","95","30.12","41","1.4","5","0.49","0.10"
"04:09:58","69.2","67.4","94","30.12","339","1.2","5","0.50","0.11"
"04:14:58","69","67.2","94","30.13","7","1.1","6","0.51","0.11"
"04:19:59","68.7","66.9","94","30.13","343","1.1","4.6","0.51","0.11"
"04:24:56","68.4","66.6","94","30.13","351","0.5","2.3","0.51","0.10"
"04:29:57","68.2","66.4","94","30.14","19","0.7","3.5","0.51","0.09"
"04:34:58","68","66.2","94","30.14","314","0.9","3.5","0.51","0.07"
"04:39:59","67.9","66.1","94","30.14","24","0.7","3.5","0.51","0.05"
"04:44:57","67.7","65.9","94","30.14","36","0.3","2.3","0.51","0.04"
"04:49:57","67.6","66","94.7","30.14","0","0.3","1.2","0.51","0.04"
"04:54:57","67.5","66","95","30.14","360","0.1","2.3","0.51","0.03"
"04:59:59","67.4","65.9","95","30.15","355","0.7","3.5","0.51","0.02"
"05:04:59","67.4","65.9","95","30.15","319","1.3","5","0.51","0.02"
"05:09:57","67.3","65.8","95","30.15","346","1.3","5","0.51","0.02"
"05:14:58","67.3","65.8","95","30.15","355","1","3","0.51","0.01"
"05:19:56","67.2","65.7","95","30.15","355","0.3","2.3","0.51","0.00"
"05:24:58","67.2","66","95.9","30.15","355","0","0","0.51","0.00"
"05:29:56","67.2","66","96","30.15","355","0.2","3.5","0.51","0.00"
"05:34:57","67.2","66","96","30.15","355","0.3","3.5","0.51","0.00"
"05:39:56","67.3","66.1","96","30.15","355","0.2","2.3","0.51","0.00"
"05:44:58","67.3","66.1","96","30.16","355","0","1.2","0.51","0.00"
"05:49:56","67.2","66","96","30.16","355","0","0","0.51","0.00"
"05:54:58","67.2","66","96","30.16","355","0","0","0.51","0.00"
"05:59:59","67.1","65.9","96","30.17","355","0","0","0.51","0.00"
"06:04:57","67.1","65.9","96","30.17","355","0","0","0.51","0.00"
"06:09:59","67.1","65.9","96","30.17","355","0","0","0.51","0.00"
"06:14:58","67","65.8","96","30.17","355","0","0","0.51","0.00"
"06:19:56","67.1","65.9","96","30.17","355","0","0","0.51","0.00"
"06:24:58","67.1","65.9","96","30.17","355","0","0","0.51","0.00"
"06:29:59","67.2","66","96","30.18","355","0","0","0.51","0.00"
"06:34:56","67.2","66","96","30.18","355","0","0","0.51","0.00"
"06:39:58","67.2","66","96","30.18","355","0","3","0.51","0.00"
"06:44:56","67.2","66","96","30.18","355","1.2","3.5","0.51","0.00"
"06:49:59","67.2","66.1","96.4","30.18","355","0.2","1.2","0.51","0.00"
"06:54:56","67.3","66.4","97","30.18","355","0","1.2","0.51","0.00"
"06:59:58","67.3","66.2","96.3","30.20","355","0.1","1.2","0.51","0.00"
"07:04:59","67.3","66.4","96.9","30.20","355","0.1","1.2","0.51","0.00"
"07:09:57","67.4","66.3","96.4","30.20","355","1.2","3.5","0.51","0.00"
"07:14:58","67.4","66.2","96","30.20","355","0.4","2.3","0.51","0.00"
"07:19:56","67.4","66.2","96","30.20","355","0","0","0.51","0.00"
"07:24:58","67.4","66.4","96.6","30.20","355","0","0","0.51","0.00"
"07:29:59","67.5","66.4","96.5","30.20","355","0.4","2.3","0.51","0.00"
"07:34:57","67.4","66","95.4","30.20","355","0.5","3.5","0.51","0.00"
"07:39:57","67.2","65.8","95.3","30.20","355","0.5","2.3","0.51","0.00"
"07:44:59","67.2","66","95.8","30.20","355","0.5","2.3","0.51","0.00"
"07:49:57","67.3","66.1","96","30.20","355","0.1","1.2","0.51","0.00"
"07:54:56","67.4","66.1","95.6","30.20","355","0.7","5","0.51","0.00"
"07:59:59","67.4","65.9","95","30.21","347","1.1","6","0.51","0.00"
"08:04:56","67.5","66","95","30.21","332","0.6","4","0.51","0.00"
"08:09:58","67.6","65.8","94","30.21","326","1.2","4","0.51","0.00"
"08:14:59","67.7","66","94.2","30.21","329","0.1","2","0.51","0.00"
"08:19:56","67.9","65.9","93.2","30.21","340","0.7","3.5","0.51","0.00"
"08:24:59","68.1","65.9","92.7","30.21","302","0.7","4","0.51","0.00"
"08:29:56","68.3","65.9","91.9","30.22","322","1.9","4","0.51","0.00"
"08:34:59","68.6","66.1","91.9","30.22","339","0.8","5","0.51","0.00"
"08:39:57","68.8","66.1","91.1","30.22","338","0.5","4","0.51","0.00"
"08:44:59","69","66.2","90.8","30.22","352","0.6","3.5","0.51","0.00"
"08:49:56","69.2","66","89.7","30.22","26","1.1","3.5","0.51","0.00"
"08:54:58","69.3","65.9","88.9","30.22","349","0.8","4","0.51","0.00"
"08:59:59","69.5","65.9","88.2","30.22","323","0.8","3.5","0.51","0.00"
"09:04:56","69.8","65.7","86.9","30.22","221","0.8","3.5","0.51","0.00"
"09:09:58","70.1","65.8","86.3","30.22","207","1","4","0.51","0.00"
"09:14:59","70.5","65.9","85.6","30.23","332","0.8","3.5","0.51","0.00"
"09:19:59","70.8","65.8","84.2","30.23","29","0.9","5","0.51","0.00"
"09:24:57","71.2","65.8","83.2","30.23","11","0.8","3","0.51","0.00"
"09:29:59","71.5","65.8","82.1","30.23","63","0.3","3.5","0.51","0.00"
"09:34:59","71.8","66.1","82.2","30.23","309","0.4","2.3","0.51","0.00"
"09:39:59","72.1","66","81.2","30.23","9","0.6","3.5","0.51","0.00"
"09:44:56","72.4","66","80.3","30.23","33","0.6","4","0.51","0.00"
"09:49:57","72.6","65.7","79","30.23","36","0.6","3.5","0.51","0.00"
"09:54:58","72.8","65.9","79","30.23","315","0.9","5","0.51","0.00"
"09:59:56","72.8","65.7","78.5","30.23","327","0.4","4.6","0.51","0.00"
"10:04:56","72.9","65.8","78.4","30.23","21","0.7","3.5","0.51","0.00"
"10:09:57","73","65.5","77.4","30.23","30","0.9","3.5","0.51","0.00"
"10:14:58","73.2","65.8","77.6","30.23","15","0.9","4","0.51","0.00"
"10:19:58","73.4","65.5","76.3","30.23","334","1.4","5","0.51","0.00"
"10:24:59","73.7","65.8","76.5","30.23","321","1.1","3.5","0.51","0.00"
"10:29:56","73.9","65.5","75","30.23","6","1.1","3.5","0.51","0.00"
"10:34:57","74.2","65.7","74.8","30.23","5","0.6","4","0.51","0.00"
"10:39:57","74.4","65.1","72.8","30.23","51","0.9","3.5","0.51","0.00"
"10:44:57","74.5","65.7","74","30.23","99","0.7","4","0.51","0.00"
"10:49:57","74.7","65.2","72.2","30.23","69","1.1","3.5","0.51","0.00"
"10:54:58","75","65.2","71.5","30.23","99","0.7","3.5","0.51","0.00"
"10:59:59","75.4","65.1","70.5","30.23","62","1.1","3.5","0.51","0.00"
"11:04:59","75.9","65.4","70","30.23","42","1.6","4","0.51","0.00"
"11:09:57","76.6","65.3","68.2","30.23","101","2","7","0.51","0.00"
"11:14:58","76.6","64.9","67.3","30.23","120","1.8","6.9","0.51","0.00"
"11:19:59","76.4","65.1","68","30.23","91","1.1","4.6","0.51","0.00"
"11:24:56","76.3","65.1","68.2","30.23","126","0.8","5","0.51","0.00"
"11:29:57","76.4","65.3","68.6","30.23","82","1.3","4","0.51","0.00"
"11:34:58","76.7","65.3","68.1","30.23","41","1","3.5","0.51","0.00"
"11:39:58","76.8","65","67.1","30.23","43","1.5","4","0.51","0.00"
"11:44:56","76.6","64.4","65.9","30.23","113","2","5","0.51","0.00"
"11:49:58","76.5","65.1","67.9","30.23","97","1.2","4","0.51","0.00"
"11:54:59","76.7","64.9","66.9","30.23","63","1.6","5","0.51","0.00"
"11:59:59","77","64.6","65.5","30.23","103","2.1","6","0.51","0.00"
"12:04:58","77.3","65.6","67.2","30.22","118","2.2","5.8","0.51","0.00"
"12:09:58","78.2","66.4","67.2","30.22","113","2","6","0.51","0.00"
"12:14:58","78.9","66.3","65.4","30.22","102","1.9","6","0.51","0.00"
"12:19:52","79.2","65.9","63.7","30.22","67","1.1","3.5","0.51","0.00"
"12:24:59","79.1","65.7","63.5","30.22","83","1.3","4","0.51","0.00"
"12:29:57","79","65.9","64.2","30.22","117","1.3","3.5","0.51","0.00"
"12:34:56","78.9","65.3","63.1","30.22","79","1.4","3.5","0.51","0.00"
"12:39:59","78.8","65.1","62.9","30.22","104","0.7","3.5","0.51","0.00"
"12:44:57","78.8","65.3","63.5","30.22","76","0.9","3.5","0.51","0.00"
"12:49:57","79","65.7","63.9","30.21","99","1","4","0.51","0.00"
"12:54:57","79.3","65.7","63.2","30.21","113","2","7","0.51","0.00"
"12:59:59","79.4","65.3","62.2","30.21","117","1.5","6.9","0.51","0.00"
"13:04:56","79.3","65.5","62.9","30.21","118","1.2","5","0.51","0.00"
"13:09:59","79.2","65.6","63.2","30.21","127","1.1","4.6","0.51","0.00"
"13:14:58","78.8","65.7","64.3","30.21","113","0.6","4","0.51","0.00"
"13:19:59","78.4","66","65.7","30.21","111","0.6","3.5","0.51","0.00"
"13:24:59","78.5","65.8","65.1","30.21","105","0.7","5","0.51","0.00"
"13:29:56","78.7","65.4","63.9","30.21","120","2.2","4.6","0.51","0.00"
"13:34:57","79","66","64.5","30.20","121","0.7","3.5","0.51","0.00"
"13:39:57","79.3","66","63.9","30.20","107","0","1.2","0.51","0.00"
"13:44:56","79.7","66.3","63.6","30.20","115","0.1","2.3","0.51","0.00"
"13:49:55","80","66.1","62.5","30.20","110","1.1","5","0.51","0.00"
"13:54:57","80","66.2","62.9","30.20","95","1.5","4","0.51","0.00"
"13:59:57","80","65.8","61.9","30.20","86","1.1","3.5","0.51","0.00"
"14:04:58","79.9","66","62.7","30.20","88","0.6","2.3","0.51","0.00"
"14:09:58","79.8","65.7","62.1","30.20","100","0.9","2.3","0.51","0.00"
"14:14:57","79.9","65.9","62.3","30.20","101","0.4","2.3","0.51","0.00"
"14:19:57","79.9","65.8","62.3","30.20","343","0.1","3","0.51","0.00"
"14:24:56","80","65.8","62.1","30.20","327","0.7","3.5","0.51","0.00"
"14:29:58","80","65.6","61.5","30.20","325","0.3","2.3","0.51","0.00"
"14:34:59","80.1","65.7","61.7","30.19","325","0.2","1.2","0.51","0.00"
"14:39:58","80.1","65.4","61","30.19","325","0.1","1.2","0.51","0.00"
"14:44:59","80","65.7","61.9","30.19","55","0.3","2.3","0.51","0.00"
"14:49:57","80.1","65.6","61.4","30.18","120","1.3","6","0.51","0.00"
"14:54:57","80.3","66.2","62.4","30.18","124","1","4","0.51","0.00"
"14:59:59","80.4","65.8","61.2","30.18","109","1.6","4","0.51","0.00"
"15:04:57","80.5","65.9","61.2","30.18","101","1.2","4","0.51","0.00"
"15:09:56","80.6","66.3","61.8","30.18","103","0.3","2.3","0.51","0.00"
"15:14:56","80.7","65.8","60.5","30.18","103","0.2","1.2","0.51","0.00"
"15:19:56","80.7","65.6","60.4","30.18","109","0.6","4","0.51","0.00"
"15:24:57","80.5","65.4","60.1","30.18","111","1","3.5","0.51","0.00"
"15:29:56","80.4","65.2","60","30.18","114","1.1","4","0.51","0.00"
"15:34:57","80.2","65.9","61.8","30.17","82","0.1","2","0.51","0.00"
"15:39:59","80.1","65.7","61.6","30.17","79","0.3","2.3","0.51","0.00"
"15:44:55","80.1","65.9","62","30.17","79","0.1","1.2","0.51","0.00"
"15:49:56","80.1","65.1","60.3","30.17","82","0.5","3","0.51","0.00"
"15:54:56","80.2","66.1","62.4","30.17","84","0.6","2.3","0.51","0.00"
"15:59:58","80.3","66.3","62.5","30.17","76","0.5","2.3","0.51","0.00"
"16:04:58","80.3","65.6","61.1","30.17","71","0.1","2.3","0.51","0.00"
"16:09:56","80.3","65.7","61.2","30.17","71","0.3","3","0.51","0.00"
"16:14:55","80.3","65.6","61.1","30.17","75","1.1","4","0.51","0.00"
"16:19:59","80.1","65.2","60.5","30.16","76","0.4","3.5","0.51","0.00"
"16:24:58","79.9","65.5","61.4","30.16","76","0.4","2.3","0.51","0.00"
"16:29:58","79.8","65.5","61.7","30.16","76","0.2","2.3","0.51","0.00"
"16:34:58","79.8","65.9","62.7","30.16","59","0.5","2.3","0.51","0.00"
"16:39:57","80.1","66.5","63.2","30.16","31","0.4","2.3","0.51","0.00"
"16:44:56","80.5","65.8","61.1","30.16","333","1.4","4","0.51","0.00"
"16:49:59","80.7","66.2","61.3","30.16","339","0.9","3.5","0.51","0.00"
"16:54:58","80.9","66.4","61.2","30.16","340","0.8","3.5","0.51","0.00"
"16:59:57","81.1","66","60.2","30.16","8","1.5","5","0.51","0.00"
"17:04:57","80.8","67.1","63.2","30.16","349","2.4","5","0.51","0.00"
"17:09:59","80.4","67","63.7","30.16","335","1.4","7","0.51","0.00"
"17:14:57","80.1","66.8","63.9","30.16","348","1.9","7","0.51","0.00"
"17:19:56","79.9","66.7","64.3","30.15","338","2.2","6","0.51","0.00"
"17:24:58","79.6","66.1","63.5","30.15","336","3.2","9.2","0.51","0.00"
"17:29:59","79.4","66.6","65.1","30.15","334","1.5","5","0.51","0.00"
"17:34:56","79.2","66.3","64.8","30.15","347","1.9","5","0.51","0.00"
"17:39:57","79","66.1","64.7","30.15","331","2.1","7","0.51","0.00"
"17:44:57","78.8","66.1","65.2","30.15","339","1.8","6","0.51","0.00"
"17:49:56","78.7","66.5","66.2","30.15","333","0.8","4","0.51","0.00"
"17:54:56","78.8","66.6","66.1","30.15","333","1.1","5","0.51","0.00"
"17:59:56","78.8","66.3","65.5","30.15","334","1.8","4.6","0.51","0.00"
"18:04:59","78.8","66.2","65.5","30.15","327","1.4","4","0.51","0.00"
"18:09:57","78.9","66","64.8","30.15","344","1.9","4","0.51","0.00"
"18:14:59","79","66.3","65.3","30.15","342","1.6","4","0.51","0.00"
"18:19:57","79.1","66.5","65.4","30.15","342","0.6","3","0.51","0.00"
"18:24:56","79.2","66.4","64.9","30.15","342","1.3","3.5","0.51","0.00"
"18:29:59","79.2","66.5","65.3","30.15","338","0.7","4","0.51","0.00"
"18:34:58","79","66.1","64.5","30.15","333","1.8","5","0.51","0.00"
"18:39:58","78.8","65.9","64.7","30.15","332","1.6","3.5","0.51","0.00"
"18:44:59","78.5","66","65.4","30.15","333","1.4","3.5","0.51","0.00"
"18:49:58","78.3","66","65.9","30.14","333","1.5","3.5","0.51","0.00"
"18:54:57","78.3","66.2","66.5","30.14","332","0.9","3.5","0.51","0.00"
"18:59:56","78.3","65.9","65.9","30.14","331","1.4","3.5","0.51","0.00"
"19:04:55","78.2","65.9","66.2","30.14","330","1.7","4","0.51","0.00"
"19:09:58","78","65.9","66.3","30.14","331","0.5","3.5","0.51","0.00"
"19:14:58","77.9","66.1","67","30.14","331","0.1","2.3","0.51","0.00"
"19:19:59","77.7","66","67.2","30.14","331","0.3","2","0.51","0.00"
"19:24:58","77.5","66.2","68.1","30.14","331","0.3","1.2","0.51","0.00"
"19:29:58","77.3","66.6","69.7","30.15","331","0","1.2","0.51","0.00"
"19:34:55","77","66.5","70.1","30.15","331","0.2","1.2","0.51","0.00"
"19:39:56","76.7","66.2","70.2","30.15","331","0.6","2.3","0.51","0.00"
"19:44:58","76.4","66.4","71.3","30.15","331","0","0","0.51","0.00"
"19:49:59","76.2","66.7","72.5","30.15","331","0","0","0.51","0.00"
"19:54:59","75.9","67.4","74.9","30.15","331","0","0","0.51","0.00"
"19:59:59","75.5","67.1","75.2","30.15","331","0","0","0.51","0.00"
"20:04:59","75.2","67.1","76","30.15","331","0","0","0.51","0.00"
"20:09:58","75","67.2","76.9","30.15","331","0","0","0.51","0.00"
"20:14:58","74.8","67.8","78.9","30.15","331","0","0","0.51","0.00"
"20:19:59","74.5","67.9","80","30.15","331","0","0","0.51","0.00"
"20:24:58","74.1","67.6","80.1","30.15","288","0","0","0.51","0.00"
"20:29:59","73.9","67.4","80.3","30.15","288","0","0","0.51","0.00"
"20:34:56","73.6","66.6","78.7","30.15","288","0","0","0.51","0.00"
"20:39:56","73.6","66.4","78.2","30.15","288","0","0","0.51","0.00"
"20:44:59","73.7","66.4","78","30.16","288","0","0","0.51","0.00"
"20:49:57","73.7","66.7","78.7","30.16","288","0","0","0.51","0.00"
"20:54:57","73.8","66.8","78.8","30.16","289","0","1","0.51","0.00"
"20:59:56","73.9","66.8","78.6","30.17","289","0","1.2","0.51","0.00"
"21:04:57","73.9","67.1","79.5","30.17","289","0","0","0.51","0.00"
"21:09:59","73.8","67.6","81","30.17","289","0","0","0.51","0.00"
"21:14:58","73.6","67.4","81","30.17","289","0","0","0.51","0.00"
"21:19:55","73.5","67.6","82","30.17","289","0","0","0.51","0.00"
"21:24:57","73.3","67.6","82.3","30.17","289","0","0","0.51","0.00"
"21:29:57","73.1","67.6","83","30.17","289","0","0","0.51","0.00"
"21:34:57","73","67.5","83","30.17","289","0","0","0.51","0.00"
"21:39:56","73","67","81.6","30.17","289","0","0","0.51","0.00"
"21:44:56","73","67.9","84.1","30.17","289","0","0","0.51","0.00"
"21:49:59","73","68.2","85","30.17","289","0","0","0.51","0.00"
"21:54:59","73","67.7","83.6","30.17","289","0","0","0.51","0.00"
"21:59:59","72.9","67.8","84","30.17","289","0","0","0.51","0.00"
"22:04:59","72.8","67.8","84.2","30.17","289","0","0","0.51","0.00"
"22:09:57","72.8","67.7","84","30.17","289","0","0","0.51","0.00"
"22:14:57","72.7","67.6","84.1","30.17","289","0","0","0.51","0.00"
"22:19:57","72.6","67.8","85","30.17","289","0","0","0.51","0.00"
"22:24:56","72.6","67.7","84.7","30.17","289","0","0","0.51","0.00"
"22:29:56","72.5","67.8","85.2","30.17","289","0","0","0.51","0.00"
"22:34:55","72.4","68","86","30.17","289","0","0","0.51","0.00"
"22:39:59","72.2","67.8","86","30.17","289","0","0","0.51","0.00"
"22:44:58","72","67.6","86","30.17","289","0","0","0.51","0.00"
"22:49:58","71.9","67.6","86.4","30.17","289","0","0","0.51","0.00"
"22:54:58","71.9","67.8","87","30.17","289","0","0","0.51","0.00"
"22:59:58","71.9","67.8","87","30.17","289","0","0","0.51","0.00"
"23:04:57","71.9","68","87.4","30.16","289","0","0","0.51","0.00"
"23:09:56","71.8","67.7","87","30.16","289","0","0","0.51","0.00"
"23:14:59","71.8","67.7","87","30.16","289","0","0","0.51","0.00"
"23:19:56","71.7","67.6","87","30.16","289","0","0","0.51","0.00"
"23:24:59","71.6","67.5","87","30.16","289","0","0","0.51","0.00"
"23:29:56","71.5","67.4","87","30.16","289","0","0","0.51","0.00"
"23:34:56","71.5","67.4","87","30.16","289","0","0","0.51","0.00"
"23:39:55","71.4","67.4","87.2","30.16","289","0","0","0.51","0.00"
"23:44:59","71.3","67.4","87.3","30.16","289","0","0","0.51","0.00"
"23:49:58","71.2","67.3","87.4","30.16","289","0","0","0.51","0.00"
"23:54:59","71.1","67.2","87.4","30.16","289","0","0","0.51","0.00"
"23:59:58","71.1","67.4","88.1","30.16","289","0","0","0.51","0.00"
